TITAN 3C TRANSTAGE DEB, 19595

Orbit data source: Space-Track

TITAN 3C TRANSTAGE DEB, 19595 is space debris in HEO originally from a launch on Tue, 21 Dec 1965 UTC launched from the Air Force Eastern Test Range (AFETR). Debris objects in space refer to the collection of defunct objects orbiting the Earth. Examples of debris include non-operational satellites, rocket bodies, and fragments generated from explosions, collisions, or faulty payload assembly.

Loading next visibility...
Identifier
19595, 1965-108AB
Orbit
HEO
Country
Flag of USUS
Related business
Manufacturer
Unknown
Mission
Spacecraft
Bus & Motor
Unknown
Mass
Unknown
Launch date (UTC)
1965-12-21 (61 years ago)
Launch vehicle
Unknown
Launch site
Air Force Eastern Test Range (AFETR)
Object type
Payload
Rocket body
Debris
Shape & HBR
Unknown shape, 0.2 m
Radar Cross Section
Medium (>0.1 m² and <1 m²)

Expand to show TLE details & history
Last TLE update: 2 months ago

TLE from 2 months ago
0 TITAN 3C TRANSTAGE DEB
1 19595U 65108AB  26202.06812474  .00000497  00000-0  37171-3 0  9995
2 19595  26.8887 122.6700 5945884 227.2913  64.3828  4.03390127198409
Epoch: 2026-07-21T01:38Z
TLE epoch observation values (Epoch: 2026-07-21T01:38:05.977Z)
Latitude
0.00007°
Longitude
159.30585°
Altitude
11,698.659 km
Speed
4.493 km/s
True Right ascension
08h 10m 41s
True Declination
0° 00' 00"
Sunlit
Object was in daylight at epoch
Visualization orbit readout
Latitude
Unknown
Longitude
Unknown
Altitude
Unknown
Speed
Unknown
Apparent Right ascension
Unknown
Apparent Declination
Unknown
Sunlit
N/A
Visualization observer readout
Local Sidereal Time
22:19:44
Azimuth
Unknown
Elevation
Unknown
Doppler factor
Unknown
Orbital elements
Apogee altitude
20,208.231 km
Perigee altitude
381.239 km
Semi-major axis
16,672.872 km
Eccentricity
0.59459
Inclination
26.8887°
RAAN
122.67°
Arg. of periapsis
227.2913°
True anomaly
132.74413°
Mean anomaly
64.3828°
Eccentric anomaly
98.10954°
Mean motion
1.00816 °/min
Orbital period
357.09 mins
BSTAR
0.00037171
Loading maneuver chart data...
Computing Atmospheric mass density...

Documentation

Showing up to 5 results
|